EHI
6 5 4 4 4 5 5 3 2 3 4 4 5 6 7 7 7 8 10 16 19 19 17 14 10 6 5 5 5 5 6 6 6 5 4 3 3 3 3 3 2 1 1
6 5 4 5 5 6 6 6 5 5 4 5 5 5 6 6 7 8 9 13 17 19 18 16 14 9 7 7 7 7 7 7 7 5 4 3 3 3 3 3 3 2 2
5 5 4 5 5 5 7 9 8 6 5 6 6 6 6 7 7 7 8 10 14 18 20 21 21 18 14 11 9 9 8 8 6 5 4 3 3 3 3 3 3 3 3
6 6 5 5 4 4 6 9 8 5 5 6 7 7 7 8 9 7 7 8 12 17 21 25 29 28 22 15 10 9 9 8 6 5 4 3 2 1 2 2 2 2 2
6 7 8 8 6 5 6 6 5 4 5 6 6 7 8 10 10 7 6 7 12 18 22 26 30 30 25 19 15 14 14 13 11 7 4 4 3 2 1 1 1 1 1
8 9 11 12 10 7 7 5 4 5 6 7 6 6 8 10 10 8 7 7 13 19 22 27 30 25 22 22 20 19 19 19 17 12 8 6 5 3 1 0 0 0 0
14 14 14 14 12 11 9 8 8 9 9 9 7 7 7 8 8 10 10 10 12 16 20 28 33 29 24 21 18 18 19 20 19 16 12 9 6 4 3 1 0 0 0
20 18 18 17 15 15 14 14 15 12 9 8 8 7 6 6 7 9 13 14 13 15 18 25 33 36 33 24 16 14 17 19 20 20 17 12 8 7 5 2 1 0 0
25 21 21 22 20 19 19 20 20 14 9 7 7 7 7 6 6 9 12 14 17 19 18 18 24 32 36 31 22 18 19 20 22 24 21 16 12 10 7 4 3 1 1
29 25 23 25 24 21 20 21 18 14 11 8 7 9 10 9 8 7 8 10 14 19 18 12 13 22 31 32 30 29 26 22 22 23 21 17 14 11 9 7 5 3 2
32 30 28 29 28 25 22 19 16 15 13 10 9 9 10 11 9 6 4 5 8 13 14 11 10 16 24 29 32 32 29 24 20 18 17 14 13 11 10 9 8 5 4
33 32 34 35 33 31 27 22 18 18 17 15 12 9 8 9 8 5 3 3 4 8 12 13 13 14 18 24 28 28 27 22 14 10 10 10 10 10 10 10 9 8 5
30 32 37 42 41 38 34 29 24 23 24 21 16 10 7 7 7 6 4 2 3 6 10 14 15 15 17 23 25 24 21 14 5 3 4 5 6 7 7 8 9 8 6
28 33 42 45 43 40 37 33 28 26 28 25 17 13 11 9 8 8 6 4 3 4 8 12 14 16 21 25 24 21 18 9 2 0 1 1 2 3 3 5 6 6 5
30 38 44 42 37 35 35 34 29 27 29 26 21 19 16 12 8 7 7 8 6 4 6 10 14 17 21 22 20 20 19 9 2 1 0 0 0 1 1 2 3 3 3
38 43 46 40 34 31 31 31 30 29 30 28 24 23 20 14 10 7 8 10 11 8 7 10 15 18 19 16 15 19 19 10 4 2 0 0 0 0 0 1 1 1 1
46 47 47 43 36 32 31 31 30 29 29 28 25 24 22 18 14 12 11 12 14 14 12 12 15 18 19 18 17 18 16 9 5 2 0 0 0 0 0 0 0 0 0
50 50 49 47 42 37 36 35 32 29 28 28 26 25 24 22 23 22 18 15 15 17 18 18 19 21 22 24 23 20 14 7 4 2 0 0 0 0 0 0 0 0 0
54 53 51 49 46 43 40 37 35 33 33 32 30 27 26 27 27 27 23 18 17 19 21 23 23 23 25 27 26 21 14 7 3 1 0 0 0 0 0 0 0 0 0
54 53 51 48 45 43 40 36 34 35 36 35 32 27 26 27 25 23 20 20 20 20 21 22 21 21 24 26 26 21 15 9 4 1 0 0 0 0 0 0 0 0 0
47 47 45 42 39 37 34 31 30 31 33 32 29 27 24 23 20 16 14 16 18 19 19 19 18 19 21 23 24 20 14 10 6 2 1 1 1 1 1 0 0 0 0
42 40 39 36 33 30 24 22 23 27 29 30 30 28 24 20 15 12 11 10 11 12 13 14 15 16 18 20 21 18 13 10 8 5 3 2 3 4 3 1 0 0 0
43 41 39 35 31 26 18 12 14 21 27 30 30 29 25 21 16 13 11 9 9 8 7 8 10 12 14 16 17 15 12 11 10 8 5 4 4 6 5 2 0 0 0
46 43 40 35 31 25 15 7 8 16 24 27 25 24 23 21 17 14 12 13 14 11 6 4 5 6 9 11 10 9 9 10 10 9 7 5 4 4 4 2 0 0 0
42 40 37 34 30 23 14 6 7 16 22 22 19 16 16 16 14 13 13 14 16 14 8 3 2 2 3 4 4 4 5 7 8 8 9 7 5 4 4 2 0 0 0
38 37 34 31 29 23 13 6 8 17 21 20 16 12 10 11 11 11 12 14 15 14 10 5 2 0 0 0 1 3 4 5 6 8 9 9 7 5 4 2 1 0 0
Wind_Speed
2 2 2 2 2 2 3 2 2 2 2 2 2 3 2 1 1 3 5 11 11 11 10 10 10 10 9 9 9 9 9 9 9 8 9 9 8 8 8 8 8 7 7
2 2 2 2 1 1 2 2 3 2 2 1 2 2 1 2 2 3 4 8 12 12 11 11 11 11 10 10 10 9 9 9 9 9 9 9 9 8 8 9 9 8 9
3 2 1 2 1 2 2 2 2 2 3 2 2 2 2 2 1 3 3 4 6 10 11 11 11 11 11 11 10 10 9 9 9 9 9 9 9 9 9 9 9 9 9
2 1 1 1 2 2 2 2 2 2 2 2 2 2 2 2 3 3 3 4 4 5 9 11 11 11 11 11 11 10 10 9 9 9 9 10 10 10 10 10 10 10 10
4 3 2 1 2 2 1 2 2 1 1 2 2 3 3 3 3 4 4 4 5 5 5 9 12 11 12 12 11 10 9 9 9 9 9 9 9 9 9 9 10 10 10
4 3 3 3 2 1 1 1 1 1 1 2 3 3 2 2 2 3 3 3 4 5 6 6 7 8 12 11 10 10 10 10 9 9 10 10 10 9 9 9 9 10 10
4 3 2 2 2 2 2 2 1 2 2 2 1 2 2 2 3 3 3 2 2 3 3 5 5 5 5 10 10 10 10 10 10 9 9 9 9 9 9 9 9 10 10
5 5 3 3 3 2 2 2 1 1 2 2 1 1 1 1 2 3 2 3 2 1 2 4 4 4 4 4 6 10 10 10 10 9 9 9 9 8 8 9 9 9 10
5 4 4 4 3 3 3 3 3 3 2 2 2 1 1 1 1 2 2 1 1 1 1 1 4 5 5 4 4 8 10 9 9 9 8 8 8 8 8 9 9 10 10
6 5 5 4 3 2 2 4 4 3 3 3 2 2 2 1 1 1 1 1 1 2 1 2 2 3 4 3 4 7 9 8 8 8 7 7 7 7 7 8 9 9 9
5 5 5 5 4 3 4 3 2 3 3 3 2 2 2 2 3 2 2 2 1 2 2 2 2 2 3 4 3 5 8 8 8 7 6 6 6 6 7 7 8 8 8
5 6 6 5 5 4 4 4 3 4 3 3 2 2 2 1 2 2 2 2 2 2 2 2 2 1 1 2 3 5 8 8 8 7 6 6 6 6 6 7 7 7 6
4 5 5 4 4 4 5 4 4 4 4 3 3 3 2 2 2 2 2 2 2 2 2 2 2 2 2 2 3 5 7 8 8 7 7 6 6 5 5 5 5 6 6
4 5 5 5 5 4 5 4 4 5 4 4 5 4 3 3 2 2 2 2 2 3 2 2 2 2 1 2 4 5 4 7 7 7 7 6 6 5 5 5 4 5 4
4 4 5 4 4 4 4 3 3 4 4 4 5 5 4 3 3 3 2 2 3 3 2 2 1 1 1 2 5 3 3 6 7 7 7 7 7 6 6 5 5 4 4
3 3 4 4 4 4 4 4 3 4 4 4 4 4 4 4 3 3 3 3 3 3 3 2 1 1 1 2 4 3 3 6 7 8 8 8 7 7 6 6 5 5 5
3 3 4 4 4 5 4 4 5 4 4 4 4 4 4 4 3 3 3 3 3 2 3 3 2 1 1 2 2 2 3 4 4 8 9 9 8 8 7 7 6 6 6
4 4 4 4 5 5 4 5 5 4 4 4 4 4 4 4 4 4 3 4 3 3 3 4 2 2 3 3 3 4 3 4 3 8 10 10 9 9 8 8 8 7 6
4 4 4 5 4 4 4 4 4 4 4 4 3 4 4 4 4 3 4 4 3 3 2 3 3 2 2 3 3 4 4 2 4 5 9 9 9 10 9 9 9 8 7
5 5 4 4 4 4 4 4 4 4 4 3 3 4 4 4 4 4 4 4 3 3 3 3 3 3 2 2 2 2 3 2 3 3 4 5 7 10 11 10 10 9 8
6 5 4 5 4 5 4 3 3 5 4 4 4 4 4 4 4 4 4 3 3 3 3 3 3 3 3 2 2 2 3 2 3 3 2 4 4 5 6 9 10 10 10
5 5 5 5 5 5 4 4 3 3 3 4 4 4 4 5 6 5 6 5 4 4 4 4 4 3 3 3 2 3 3 3 3 2 2 4 4 5 5 5 9 11 11
5 5 5 5 5 4 4 5 5 4 4 4 4 4 5 4 4 4 4 6 6 8 7 5 5 5 4 3 2 3 4 4 5 3 3 4 4 4 4 5 11 12 12
5 5 5 5 5 5 5 5 5 5 5 5 5 5 4 3 3 3 4 4 5 5 6 6 5 5 4 3 4 5 5 5 5 3 3 4 3 3 3 3 9 12 13
4 5 5 5 5 5 7 7 6 5 4 5 5 4 4 3 4 4 4 5 5 4 4 5 6 6 7 7 5 3 4 4 4 4 3 3 2 3 2 2 4 9 11
4 5 5 5 5 5 7 9 8 5 4 4 3 4 3 3 3 3 4 4 5 4 4 4 5 7 7 7 8 6 5 5 4 3 3 3 3 2 2 2 2 4 5
Wind_Direction
161 153 159 174 198 180 180 205 212 223 243 237 229 217 226 217 170 155 153 173 177 182 188 194 200 205 205 208 210 209 209 210 211 212 212 212 216 220 222 221 220 222 231
151 152 165 191 214 197 187 187 205 207 242 248 252 259 254 209 185 178 166 179 187 190 194 200 205 208 210 213 214 216 217 217 215 214 215 216 219 223 226 227 226 229 233
156 164 178 192 198 213 205 199 213 197 220 229 233 252 255 250 213 185 185 183 187 197 200 203 206 210 212 215 216 217 216 217 217 218 217 217 220 225 228 228 227 230 233
159 179 179 189 200 228 212 203 213 209 218 232 232 238 230 227 219 216 206 195 181 188 199 204 204 207 211 216 219 218 216 217 218 218 221 222 225 228 230 230 230 231 232
180 191 184 183 211 225 224 234 182 200 222 236 244 232 225 216 217 222 213 205 189 181 180 194 201 206 212 216 218 217 216 216 216 218 221 224 227 231 232 232 233 234 235
183 192 183 188 214 206 219 255 230 219 240 239 263 256 242 214 210 232 224 215 196 189 189 182 188 205 214 216 217 217 218 218 217 219 222 225 229 231 234 235 236 238 238
182 193 203 182 205 194 211 227 222 239 239 220 254 270 251 239 234 217 217 220 209 187 178 167 176 189 195 209 215 215 217 220 222 223 226 228 231 233 232 235 238 238 239
190 194 196 207 199 196 213 226 209 237 255 213 211 280 308 307 278 242 200 200 216 185 188 181 172 178 179 177 194 209 215 220 224 226 226 228 233 237 236 237 239 241 242
198 207 187 210 210 201 197 210 211 217 244 254 207 206 224 251 281 268 249 205 186 208 221 221 182 176 179 173 177 197 208 214 220 224 226 229 232 234 236 239 241 243 244
200 195 199 207 218 212 193 212 203 218 227 253 248 226 223 198 241 293 286 260 213 205 221 259 232 184 168 172 174 172 190 202 213 222 227 230 233 234 237 239 244 246 245
201 201 204 203 206 213 211 214 209 213 226 239 249 244 235 223 227 229 260 273 260 228 204 219 224 200 172 178 173 168 178 191 201 210 221 230 233 233 236 241 245 247 243
202 205 204 201 202 208 213 214 221 221 233 244 259 266 251 241 234 237 250 257 257 254 224 213 203 188 194 161 168 164 174 183 192 202 213 224 233 234 238 240 242 241 236
202 200 202 196 205 208 212 210 216 223 226 229 239 253 261 254 250 248 247 263 274 268 240 224 202 191 194 154 155 165 178 183 190 201 208 216 223 227 231 235 235 237 239
206 190 192 194 206 210 216 207 218 220 220 226 238 240 251 250 255 243 238 243 271 271 250 240 211 192 185 157 159 171 178 188 196 203 207 211 212 215 220 224 230 231 236
220 184 185 193 201 210 220 212 224 228 219 223 234 234 236 246 244 247 241 230 233 259 266 241 213 183 162 156 162 183 178 192 201 205 208 207 207 211 214 217 220 219 221
215 183 183 189 201 209 215 221 235 235 231 233 235 239 239 243 246 246 240 244 243 244 257 262 245 217 201 191 176 191 186 193 198 200 201 203 204 207 211 214 216 215 217
205 197 199 199 204 214 213 218 234 233 240 244 246 239 241 244 250 259 255 249 242 237 249 261 257 240 215 205 188 205 200 199 197 203 202 203 205 206 208 210 213 214 216
209 205 206 209 215 217 216 219 229 232 236 241 250 253 251 247 242 248 257 259 250 237 237 251 255 248 233 208 197 217 224 215 199 202 202 204 204 205 208 211 212 214 214
210 214 214 216 219 222 222 225 226 233 236 236 243 255 254 249 250 247 246 252 259 261 239 243 255 248 239 216 205 228 234 231 230 201 202 205 208 209 212 213 213 212 209
212 217 218 219 217 220 222 221 223 227 236 240 243 247 257 255 251 255 254 253 261 271 267 256 252 248 239 225 209 227 246 230 238 222 201 203 211 214 216 213 210 205 205
220 220 220 225 220 220 220 212 234 227 223 236 239 236 238 236 245 254 259 259 259 258 262 260 254 253 244 231 228 234 250 251 244 221 196 208 204 211 214 218 212 205 205
224 226 224 227 230 228 199 198 223 242 235 235 240 239 231 231 232 234 235 240 246 249 254 259 258 255 248 243 245 253 252 256 257 222 215 235 206 210 209 207 201 200 202
218 224 225 223 220 220 214 206 220 235 243 243 241 245 252 239 222 231 232 237 243 244 241 248 261 265 261 252 253 261 259 253 252 239 231 250 230 220 213 208 195 198 200
219 222 224 225 216 215 199 201 220 235 247 246 244 241 239 237 244 252 259 255 252 247 241 236 242 256 263 259 247 248 256 258 257 247 219 247 236 231 223 202 198 197 197
227 224 221 221 214 207 199 198 207 230 238 243 247 250 236 218 229 240 255 262 262 256 255 255 246 248 253 256 253 262 260 258 263 252 223 236 247 247 228 218 202 196 200
226 226 222 219 211 214 202 197 201 226 234 233 238 241 227 212 224 226 245 258 261 266 272 266 255 254 248 245 236 226 240 249 257 262 226 229 237 238 261 229 189 186 200